Location: Azul
(36.7830°S, 59.8500°W)
Time: 16:32:14
(UTC-03:00)

ISS - Pass Details

Date: 04 March 2021
Orbit: 417 x 422 km, 51.6° (Epoch: 26 February)

Event Time Altitude Azimuth Distance (km) Brightness Sun altitude
Rises 21:09:49 0° 234° (SW) 2,401 1.6 -19.4°
Reaches altitude 10° 21:11:58 10° 238° (WSW) 1,528 0.3 -19.8°
Maximum altitude 21:15:20 54° 316° (NW) 527 -3.3 -20.4°
Enters shadow 21:15:33 52° 333° (NNW) 535 -3.3 -20.4°
